ČSOB NIGHT RUN ŠTRBSKÉ PLESO

Running
DATE :1.8.2020 PLACE  :Štrbské Pleso

Selected athletes overview

Selected athletes will be displayed here. Currently nothing selected.
EXPORT :   XLS
Results -
Loading...
Rank Bib Fullname Nat. Year Club Category Time Gap
DISPLAY ON PAGE
Rank Bib Fullname Nat. Year Club Category Time Gap
1 1188 athlete detail RUSINA Martin SVK 1994 --- 1. /  Muži 16-39 rokov 0:34:46 0:00:00
2 1063 athlete detail MIHALOV Adam SVK 1992 Prešov 2. /  Muži 16-39 rokov 0:35:58 0:01:12
3 1267 athlete detail HUJSA Matúš SVK 1991 NASA atletika Bratislava 3. /  Muži 16-39 rokov 0:36:05 0:01:19
4 1171 athlete detail LECOURTOIS Federico SVK 1978 --- 1. /  Muži 40-49 rokov 0:36:29 0:01:43
5 1173 athlete detail MAKOVICKÝ Martin SVK 1983 ŠK KOMPAS 4. /  Muži 16-39 rokov 0:36:55 0:02:09
6 1219 athlete detail KALINA Rastislav SVK 1975 Maratón klub Rajec 2. /  Muži 40-49 rokov 0:37:10 0:02:24
7 1266 athlete detail VLČKO Matúš SVK 1991 Moji ľudia Černová 5. /  Muži 16-39 rokov 0:37:48 0:03:02
8 1192 athlete detail GLONČÁK Peter SVK 1979 BEHAME.sk 3. /  Muži 40-49 rokov 0:37:55 0:03:09
9 1261 athlete detail HATALA Martin SVK 1974 Moji ľudia Černová 4. /  Muži 40-49 rokov 0:38:43 0:03:57
10 1274 athlete detail PÁLFI Štefan SVK 1982 Active life ,Imkor 6. /  Muži 16-39 rokov 0:40:00 0:05:14
11 1183 athlete detail BAČA Mario SVK 1974 Zlaté Moravce 5. /  Muži 40-49 rokov 0:40:12 0:05:26
12 1255 athlete detail ŠPERKA Filip SVK 2002 Sykora Training Group 7. /  Muži 16-39 rokov 0:40:18 0:05:32
13 1243 athlete detail HUDÁK Anton SVK 1966 Jaroslav Hrebik - voda, plyn, kúrenie 1. /  Muži 50-59 rokov 0:40:36 0:05:50
14 1050 athlete detail HÁJEK Tomáš SVK 1991 Kovalcuk_team 8. /  Muži 16-39 rokov 0:40:45 0:05:59
15 1139 athlete detail FAZEKAŠ Miroslav SVK 1987 Active Life Košice 9. /  Muži 16-39 rokov 0:40:55 0:06:09
16 1130 athlete detail MARTINUSÍK Kamil SVK 1997 --- 10. /  Muži 16-39 rokov 0:41:35 0:06:49
17 1301 athlete detail TOMEČEK Jaroslav SVK 1965 MARAS team 2. /  Muži 50-59 rokov 0:41:39 0:06:53
18 1148 athlete detail KUCHÁREK Marcel SVK 1984 BERNOHY.sk 11. /  Muži 16-39 rokov 0:41:45 0:06:59
19 1251 athlete detail KRÁĽ Matúš SVK 1993 Sport club Slovakia 12. /  Muži 16-39 rokov 0:41:47 0:07:01
20 1123 athlete detail MIŠENKO Ľuboslav SVK 2000 --- 13. /  Muži 16-39 rokov 0:41:51 0:07:05
21 1259 athlete detail HRIŇ Štefan SVK 1969 ON Trnavá Hora 3. /  Muži 50-59 rokov 0:42:02 0:07:16
22 1225 athlete detail KRAVČÁK Peter SVK 1978 --- 6. /  Muži 40-49 rokov 0:42:06 0:07:20
23 1209 athlete detail VAŇUŠ Marek SVK 1977 --- 7. /  Muži 40-49 rokov 0:42:22 0:07:36
24 1294 athlete detail ŠIMKO Ján SVK 1980 --- 8. /  Muži 40-49 rokov 0:42:25 0:07:39
25 1200 athlete detail PALOČKO Miloš SVK 1981 OcÚ Žipov 14. /  Muži 16-39 rokov 0:43:03 0:08:17
26 1160 athlete detail SCHNIERER Tomáš SVK 1993 --- 15. /  Muži 16-39 rokov 0:43:04 0:08:18
27 1230 athlete detail HARGAŠ Ľuboš SVK 1992 #AdventureHunter 16. /  Muži 16-39 rokov 0:43:28 0:08:42
28 1161 athlete detail PETKOV Radovan SVK 1991 Dolné Srnie #teampetkov 17. /  Muži 16-39 rokov 0:43:29 0:08:43
29 1256 athlete detail ŠPERKA Marek SVK 1974 Sykora Training Group 9. /  Muži 40-49 rokov 0:43:30 0:08:44
30 1281 athlete detail TOKARČÍK Tomáš SVK 1984 Fusakle 18. /  Muži 16-39 rokov 0:44:02 0:09:16
31 1052 athlete detail PALUBJAK Robert CZE 1981 Poprad 19. /  Muži 16-39 rokov 0:44:15 0:09:29
32 1083 athlete detail HUMMLER Filip SVK 1993 Need for Speed 20. /  Muži 16-39 rokov 0:44:25 0:09:39
33 1277 athlete detail RUS Roman SVK 1990 Svetielko nádeje 21. /  Muži 16-39 rokov 0:44:46 0:10:00
34 1053 athlete detail LUKÁČ Matej SVK 1995 NYtri 22. /  Muži 16-39 rokov 0:44:48 0:10:02
35 1138 athlete detail ŠEVČÍK Marek SVK 1987 Motel Skalka 23. /  Muži 16-39 rokov 0:45:13 0:10:27
36 1062 athlete detail PILINSKY Michal SVK 1980 --- 10. /  Muži 40-49 rokov 0:45:16 0:10:30
37 1091 athlete detail DANIŠ Miroslav SVK 1973 Telekom Running Team 11. /  Muži 40-49 rokov 0:45:18 0:10:32
38 1269 athlete detail GIBALA Dominik SVK 1988 SLOVNAFT 24. /  Muži 16-39 rokov 0:45:36 0:10:50
39 1001 athlete detail MURČO Dušan SVK 1991 --- 25. /  Muži 16-39 rokov 0:45:44 0:10:58
40 1211 athlete detail KRETA Jakub SVK 2002 --- 26. /  Muži 16-39 rokov 0:45:44 0:10:58
41 1185 athlete detail KALIST Jaroslav SVK 1981 SPARTAN TRAINING GROUP PREŠOV 27. /  Muži 16-39 rokov 0:45:45 0:10:59
42 1239 athlete detail NOVÁK Miroslav SVK 1997 BILLA 28. /  Muži 16-39 rokov 0:45:45 0:10:59
43 1157 athlete detail DINDOFFER René SVK 1980 --- 12. /  Muži 40-49 rokov 0:45:57 0:11:11
44 1069 athlete detail KAVICKÝ Andrej SVK 1981 Andy 29. /  Muži 16-39 rokov 0:46:00 0:11:14
45 1060 athlete detail MECELE Martin SVK 1991 Stará Kremnička 30. /  Muži 16-39 rokov 0:46:19 0:11:33
46 1174 athlete detail ŠIMURDA Maroš SVK 1989 --- 31. /  Muži 16-39 rokov 0:46:23 0:11:37
47 1196 athlete detail MIŠKUF Rastislav SVK 1975 ZVL AUTO 13. /  Muži 40-49 rokov 0:46:38 0:11:52
48 1076 athlete detail SERDEL Pavel SVK 1956 Liptovsky mikulas 1. /  Muži 60 rokov a viac 0:46:46 0:12:00
49 1316 athlete detail STUDENÝ Radek CZE 1975 Unlimited Nutri Clinic 14. /  Muži 40-49 rokov 0:46:54 0:12:08
50 1257 athlete detail KORP Patrik SVK 1973 DePuy Mitek 15. /  Muži 40-49 rokov 0:46:58 0:12:12
51 1300 athlete detail BURI Richard SVK 1994 --- 32. /  Muži 16-39 rokov 0:47:01 0:12:15
52 1289 athlete detail MATIAŠOVIČ David SVK 1995 OTP BANKA Slovensko 33. /  Muži 16-39 rokov 0:47:03 0:12:17
53 1047 athlete detail BUČÁK Marian SVK 1971 Kovalcuk_team 16. /  Muži 40-49 rokov 0:47:10 0:12:24
54 1104 athlete detail ŠKVARIDLO Davorín SVK 1979 --- 17. /  Muži 40-49 rokov 0:47:16 0:12:30
55 1129 athlete detail ČÍK Ivan SVK 1966 Svetielko nádeje 4. /  Muži 50-59 rokov 0:47:23 0:12:37
56 1164 athlete detail KUNDRAČIK Miroslav POL 1985 Orzeł 34. /  Muži 16-39 rokov 0:47:24 0:12:38
57 1206 athlete detail OBUŠEK Jozef SVK 1972 DM fans 18. /  Muži 40-49 rokov 0:47:26 0:12:40
58 1246 athlete detail ČEPKO Martin SVK 1990 Active life 35. /  Muži 16-39 rokov 0:47:42 0:12:56
59 1013 athlete detail JURÁSEK Peter SVK 1969 KRB Dolné Orešany 5. /  Muži 50-59 rokov 0:47:44 0:12:58
60 1141 athlete detail VALENT Robert SVK 1986 --- 36. /  Muži 16-39 rokov 0:47:48 0:13:02
61 1038 athlete detail BUJŇÁK Štefan SVK 1993 --- 37. /  Muži 16-39 rokov 0:47:51 0:13:05
62 1037 athlete detail BUJŇÁK Marek SVK 1982 --- 38. /  Muži 16-39 rokov 0:47:51 0:13:05
63 1210 athlete detail KRETA Michal SVK 1980 --- 19. /  Muži 40-49 rokov 0:47:57 0:13:11
64 1084 athlete detail ONDROVIČ Martin SVK 1990 Oreské 39. /  Muži 16-39 rokov 0:47:58 0:13:12
65 1159 athlete detail HOLLÝ Miro SVK 1976 Kempinski / behamsrdcom.sk 20. /  Muži 40-49 rokov 0:48:05 0:13:19
66 1137 athlete detail VEREŠ Radomír SVK 1979 --- 21. /  Muži 40-49 rokov 0:48:07 0:13:21
67 1189 athlete detail DETKO Tomáš SVK 1994 --- 40. /  Muži 16-39 rokov 0:48:17 0:13:31
68 1170 athlete detail GONDA Lukas SVK 1983 --- 41. /  Muži 16-39 rokov 0:48:28 0:13:42
69 1260 athlete detail ČECH Tomáš SVK 1986 neopúšťaj sa! 42. /  Muži 16-39 rokov 0:48:32 0:13:46
70 1030 athlete detail ČERVENKA Pavol SVK 1989 CrossFit Proton 43. /  Muži 16-39 rokov 0:48:34 0:13:48
71 1002 athlete detail ŠUSTER Vladimir SVK 1977 V 22. /  Muži 40-49 rokov 0:48:35 0:13:49
72 1168 athlete detail MECELE Jozef SVK 1961 Slovalco Žiar nad Hr. 6. /  Muži 50-59 rokov 0:48:37 0:13:51
73 1113 athlete detail VEREŠ Bohuš SVK 1993 Slovanet 44. /  Muži 16-39 rokov 0:49:01 0:14:15
74 1144 athlete detail KRUTÁK Tomáš SVK 1988 Žilinskí jastrabi 45. /  Muži 16-39 rokov 0:49:03 0:14:17
75 1067 athlete detail BANAS Mateusz POL 1986 Biegiem przez Ż 46. /  Muži 16-39 rokov 0:49:07 0:14:21
76 1073 athlete detail UNTERMAYER Štefan SVK 1988 Com-klima 47. /  Muži 16-39 rokov 0:49:20 0:14:34
77 1217 athlete detail BOTKA Peter SVK 1994 --- 48. /  Muži 16-39 rokov 0:49:23 0:14:37
78 1315 athlete detail HRUŠOVSKÝ Milan SVK 1957 --- 2. /  Muži 60 rokov a viac 0:49:27 0:14:41
79 1184 athlete detail GEMZA Dušan SVK 1985 --- 49. /  Muži 16-39 rokov 0:49:28 0:14:42
80 1220 athlete detail KALINA Branislav SVK 1980 KODYS SLOVENSKO 23. /  Muži 40-49 rokov 0:49:30 0:14:44
81 1049 athlete detail BORBÉLY Jakub SVK 2002 Kovalcuk_team 50. /  Muži 16-39 rokov 0:49:41 0:14:55
82 1296 athlete detail MRKVICA Miroslav SVK 1971 --- 24. /  Muži 40-49 rokov 0:49:51 0:15:05
83 1070 athlete detail VOLODIN Sergey SVK 1974 Triatleta 25. /  Muži 40-49 rokov 0:49:58 0:15:12
84 1068 athlete detail VNUČKO Martin SVK 1979 BA Social Runners 26. /  Muži 40-49 rokov 0:50:12 0:15:26
85 1197 athlete detail JANČIČKA Ivan SVK 1978 Squash Hlohovec 27. /  Muži 40-49 rokov 0:50:16 0:15:30
86 1177 athlete detail HRENÁK Juraj SVK 1993 --- 51. /  Muži 16-39 rokov 0:50:20 0:15:34
87 1100 athlete detail HLAVATA Milan SVK 1986 Telekom Running Team 52. /  Muži 16-39 rokov 0:50:23 0:15:37
88 1214 athlete detail SLAVKOVSKY Michal SVK 1980 --- 28. /  Muži 40-49 rokov 0:50:25 0:15:39
89 1172 athlete detail FÁBRY Vladimír SVK 1985 TJ PACCO 53. /  Muži 16-39 rokov 0:50:31 0:15:45
90 1151 athlete detail MARIANČÍK Matúš SVK 1983 --- 54. /  Muži 16-39 rokov 0:50:47 0:16:01
91 1292 athlete detail TRUHELKA Libor CZE 1974 --- 29. /  Muži 40-49 rokov 0:50:50 0:16:04
92 1302 athlete detail BENE Štefan SVK 1992 --- 55. /  Muži 16-39 rokov 0:50:54 0:16:08
93 1158 athlete detail ŠVIHORÍK Róbert SVK 1988 Retailsoft running team 56. /  Muži 16-39 rokov 0:51:00 0:16:14
94 1195 athlete detail BUDINSKÝ Peter SVK 1980 --- 30. /  Muži 40-49 rokov 0:51:05 0:16:19
95 1086 athlete detail MACKOVIČ Viliam SVK 1959 --- 3. /  Muži 60 rokov a viac 0:51:08 0:16:22
96 1036 athlete detail PALYO Peter SVK 1987 Marathon BB Team 57. /  Muži 16-39 rokov 0:51:10 0:16:24
97 1006 athlete detail STOLIČNÝ Martin SVK 1969 REDE 7. /  Muži 50-59 rokov 0:51:25 0:16:39
98 1071 athlete detail BENDIK Peter SVK 1990 Bendik Racing Team 58. /  Muži 16-39 rokov 0:51:30 0:16:44
99 1182 athlete detail MAJDA Peter SVK 1989 --- 59. /  Muži 16-39 rokov 0:51:36 0:16:50
100 1056 athlete detail ROLINEC Jozef SVK 1986 ZC RUN 60. /  Muži 16-39 rokov 0:51:37 0:16:51

Don't you find yourself in results list? Contact timekeeper's team.